STARLINK-1931, 46790

Orbit data source: Space-Track

STARLINK-1931, 46790 is a payload satellite owned by SpaceX/Seattle (US) in LEO that was launched on Sat, 24 Oct 2020 UTC via an FALCON 9 launch vehicle from the Air Force Eastern Test Range (AFETR). Payload-class satellites include a variety of spacecraft equipped with specific instruments for various scientific and technological missions. These include communications satellites like Starlink; space stations such as the ISS; scientific satellites like the Hubble; Earth observation satellites from companies like Planet Labs, Umbra, and HawkEye 360; GPS; miniature CubeSats for education and research; and military/defense satellites.

Loading next visibility...
Identifier
46790, 2020-074BD
Orbit
LEO
Country
Flag of USUS
Related business
Manufacturer
SpaceX/Seattle
Mission
Operational Commercial Communications
Bus & Motor
STARLINK, Unknown motor
Mass
260 kg wet, ~248 kg dry
Launch date (UTC)
2020-10-24 (5 years ago)
Launch vehicle
FALCON 9
Launch site
Air Force Eastern Test Range (AFETR)
Object type
Payload
Rocket body
Debris
Shape & HBR
Box + 1 Pan, 10.1 m
Radar Cross Section
13.562 m², Large (>1 m²)

Expand to show TLE details & history
Last TLE update: 1 day ago

TLE from 1 day ago
0 STARLINK-1931
1 46790U 20074BD  25286.21992874  .00001366  00000-0  11056-3 0  9996
2 46790  53.0546 263.6361 0001496  88.4327 271.6833 15.06398648274441
Epoch: 2025-10-13T05:16Z
TLE epoch observation values (Epoch: 2025-10-13T05:16:41.843Z)
Latitude
-0.00003°
Longitude
162.43589°
Altitude
548.065 km
Speed
7.589 km/s
True Right ascension
17h 34m 32s
True Declination
0° 00' 00"
Sunlit
Object was in daylight at epoch
Visualization orbit readout
Latitude
Unknown
Longitude
Unknown
Altitude
Unknown
Speed
Unknown
Apparent Right ascension
Unknown
Apparent Declination
Unknown
Sunlit
N/A
Visualization observer readout
Local Sidereal Time
02:42:09
Azimuth
Unknown
Elevation
Unknown
Doppler factor
Unknown
Orbital elements
Apogee altitude
548.522 km
Perigee altitude
546.45 km
Semi-major axis
6,925.623 km
Eccentricity
0.00015
Inclination
53.0546°
RAAN
263.6361°
Arg. of periapsis
88.4327°
True anomaly
271.66616°
Mean anomaly
271.6833°
Eccentric anomaly
271.67473°
Mean motion
3.76578 °/min
Orbital period
95.6 mins
BSTAR
0.00011056
Loading maneuver chart data...
Computing Atmospheric mass density...

Documentation

Showing up to 5 results
|